• en France
  • Liste des pays
  • À 7 jours
  • Température de l'eau
  • Carte satellitaire
  • Carte météo
  • Widgets météo
  • user-avatar
    Se connecter

    Météo par heure à Gluhari

    Ce jour, 20 Septembre, Jeudi

    Heure Température Précipitation Vent Pression Humidité
    00:00 +14°C° 0 mm 3 m/s 749 mmHg 91%
    01:00 +13°C° 0 mm 3 m/s 749 mmHg 93%
    02:00 +12°C° 0 mm 3 m/s 749 mmHg 96%
    03:00 +12°C° 0 mm 3 m/s 749 mmHg 97%
    04:00 +12°C° 0 mm 3 m/s 749 mmHg 97%
    05:00 +12°C° 0 mm 3 m/s 750 mmHg 97%
    06:00 +13°C° 0 mm 3 m/s 750 mmHg 94%
    07:00 +13°C° 0 mm 3 m/s 750 mmHg 92%
    08:00 +14°C° 0 mm 3 m/s 750 mmHg 89%
    09:00 +17°C° 0 mm 3 m/s 750 mmHg 83%
    10:00 +18°C° 0 mm 4 m/s 750 mmHg 77%
    11:00 +20°C° 0 mm 4 m/s 751 mmHg 71%
    12:00 +20°C° 0 mm 4 m/s 750 mmHg 67%
    13:00 +21°C° 0 mm 4 m/s 750 mmHg 63%
    14:00 +22°C° 0 mm 4 m/s 750 mmHg 59%
    15:00 +22°C° 0 mm 4 m/s 750 mmHg 63%
    16:00 +21°C° 0 mm 3 m/s 750 mmHg 66%
    17:00 +21°C° 0 mm 3 m/s 750 mmHg 70%
    18:00 +19°C° 0 mm 3 m/s 750 mmHg 75%
    19:00 +18°C° 0 mm 3 m/s 750 mmHg 80%
    20:00 +17°C° 0 mm 3 m/s 750 mmHg 84%
    21:00 +17°C° 0 mm 2 m/s 750 mmHg 87%
    22:00 +16°C° 0 mm 2 m/s 750 mmHg 89%
    23:00 +16°C° 0 mm 2 m/s 750 mmHg 92%

    Demain, 21 Septembre, Vendredi

    Heure Température Précipitation Vent Pression Humidité
    00:00 +16°C° 0 mm 2 m/s 750 mmHg 92%
    01:00 +15°C° 0 mm 2 m/s 750 mmHg 93%
    02:00 +15°C° 0 mm 2 m/s 750 mmHg 94%
    03:00 +14°C° 0 mm 3 m/s 750 mmHg 95%
    04:00 +14°C° 0 mm 3 m/s 750 mmHg 95%
    05:00 +14°C° 0 mm 3 m/s 750 mmHg 95%
    06:00 +16°C° 0 mm 3 m/s 750 mmHg 92%
    07:00 +16°C° 0 mm 3 m/s 751 mmHg 89%
    08:00 +17°C° 0 mm 3 m/s 751 mmHg 86%
    09:00 +19°C° 0 mm 3 m/s 751 mmHg 79%
    10:00 +20°C° 0 mm 3 m/s 751 mmHg 72%
    11:00 +22°C° 0 mm 3 m/s 751 mmHg 65%
    12:00 +22°C° 0 mm 3 m/s 750 mmHg 63%
    13:00 +24°C° 0 mm 3 m/s 750 mmHg 60%
    14:00 +25°C° 0 mm 4 m/s 750 mmHg 57%
    15:00 +24°C° 0 mm 3 m/s 749 mmHg 62%
    16:00 +24°C° 0 mm 3 m/s 749 mmHg 67%
    17:00 +22°C° 0 mm 3 m/s 748 mmHg 72%
    18:00 +21°C° 0 mm 3 m/s 748 mmHg 74%
    19:00 +21°C° 0 mm 3 m/s 748 mmHg 77%
    20:00 +20°C° 0 mm 4 m/s 748 mmHg 79%
    21:00 +20°C° 0 mm 4 m/s 747 mmHg 79%
    22:00 +20°C° 0 mm 4 m/s 747 mmHg 78%
    23:00 +19°C° 0 mm 4 m/s 747 mmHg 77%

    Après-demain, 22 Septembre, Samedi

    Heure Température Précipitation Vent Pression Humidité
    00:00 +19°C° 0 mm 4 m/s 746 mmHg 77%
    01:00 +17°C° 0 mm 5 m/s 745 mmHg 76%
    02:00 +17°C° 0 mm 5 m/s 745 mmHg 75%
    03:00 +17°C° 0 mm 5 m/s 744 mmHg 74%
    04:00 +17°C° 0 mm 5 m/s 743 mmHg 74%
    05:00 +17°C° 0 mm 5 m/s 743 mmHg 74%
    06:00 +17°C° 0 mm 5 m/s 742 mmHg 72%
    07:00 +17°C° 0 mm 6 m/s 742 mmHg 70%
    08:00 +17°C° 0 mm 6 m/s 742 mmHg 69%
    09:00 +15°C° 0.4 mm 5 m/s 743 mmHg 74%
    10:00 +14°C° 0.4 mm 5 m/s 743 mmHg 78%
    11:00 +12°C° 0.4 mm 4 m/s 744 mmHg 83%
    12:00 +12°C° 0.2 mm 4 m/s 744 mmHg 83%
    13:00 +12°C° 0.2 mm 5 m/s 744 mmHg 83%
    14:00 +12°C° 0.2 mm 5 m/s 745 mmHg 84%
    15:00 +12°C° 0.1 mm 4 m/s 745 mmHg 81%
    16:00 +12°C° 0.1 mm 4 m/s 745 mmHg 79%
    17:00 +12°C° 0.1 mm 4 m/s 745 mmHg 77%
    18:00 +12°C° 0 mm 4 m/s 746 mmHg 77%
    19:00 +11°C° 0 mm 3 m/s 746 mmHg 77%
    20:00 +11°C° 0 mm 3 m/s 746 mmHg 77%
    21:00 +10°C° 0 mm 3 m/s 746 mmHg 78%
    22:00 +10°C° 0 mm 3 m/s 746 mmHg 78%
    23:00 +9°C° 0 mm 3 m/s 746 mmHg 79%

    23 Septembre, Dimanche

    Heure Température Précipitation Vent Pression Humidité
    00:00 +9°C° 0 mm 3 m/s 746 mmHg 80%
    01:00 +9°C° 0 mm 3 m/s 746 mmHg 82%
    02:00 +8°C° 0 mm 3 m/s 745 mmHg 84%
    03:00 +8°C° 0 mm 3 m/s 745 mmHg 85%
    04:00 +8°C° 0 mm 3 m/s 745 mmHg 87%
    05:00 +7°C° 0 mm 4 m/s 744 mmHg 88%
    06:00 +7°C° 0 mm 4 m/s 744 mmHg 86%
    07:00 +8°C° 0 mm 4 m/s 744 mmHg 84%
    08:00 +9°C° 0 mm 5 m/s 743 mmHg 81%
    09:00 +9°C° 0.1 mm 5 m/s 743 mmHg 79%
    10:00 +10°C° 0.1 mm 5 m/s 743 mmHg 76%
    11:00 +10°C° 0.1 mm 5 m/s 743 mmHg 73%
    12:00 +12°C° 0.3 mm 5 m/s 742 mmHg 72%
    13:00 +12°C° 0.3 mm 5 m/s 742 mmHg 71%
    14:00 +13°C° 0.3 mm 5 m/s 742 mmHg 70%
    15:00 +12°C° 0.2 mm 5 m/s 742 mmHg 72%
    16:00 +12°C° 0.2 mm 4 m/s 742 mmHg 74%
    17:00 +11°C° 0.2 mm 3 m/s 742 mmHg 76%
    18:00 +10°C° 0 mm 3 m/s 742 mmHg 78%
    19:00 +8°C° 0 mm 4 m/s 742 mmHg 80%
    20:00 +8°C° 0 mm 4 m/s 742 mmHg 83%
    21:00 +7°C° 0 mm 4 m/s 742 mmHg 84%
    22:00 +8°C° 0 mm 3 m/s 742 mmHg 85%
    23:00 +8°C° 0 mm 3 m/s 742 mmHg 85%

    24 Septembre, Lundi

    Heure Température Précipitation Vent Pression Humidité
    00:00 +7°C° 0 mm 3 m/s 742 mmHg 87%
    01:00 +7°C° 0 mm 3 m/s 742 mmHg 89%
    02:00 +7°C° 0 mm 3 m/s 742 mmHg 91%
    03:00 +6°C° 0 mm 2 m/s 742 mmHg 92%
    04:00 +6°C° 0 mm 2 m/s 742 mmHg 94%
    05:00 +7°C° 0 mm 1 m/s 741 mmHg 96%
    06:00 +7°C° 0 mm 1 m/s 741 mmHg 94%
    07:00 +8°C° 0 mm 1 m/s 741 mmHg 91%
    08:00 +9°C° 0 mm 1 m/s 741 mmHg 88%
    09:00 +9°C° 0.2 mm 1 m/s 741 mmHg 86%
    10:00 +9°C° 0.2 mm 2 m/s 741 mmHg 83%
    11:00 +10°C° 0.2 mm 2 m/s 740 mmHg 81%
    12:00 +9°C° 0.8 mm 3 m/s 740 mmHg 82%
    13:00 +9°C° 0.8 mm 3 m/s 739 mmHg 84%
    14:00 +8°C° 0.8 mm 4 m/s 738 mmHg 86%
    15:00 +7°C° 1.4 mm 4 m/s 738 mmHg 86%
    16:00 +7°C° 1.4 mm 5 m/s 738 mmHg 87%
    17:00 +7°C° 1.4 mm 5 m/s 737 mmHg 88%
    18:00 +5°C° 0.8 mm 6 m/s 737 mmHg 87%
    19:00 +5°C° 0.8 mm 6 m/s 737 mmHg 85%
    20:00 +5°C° 0.8 mm 6 m/s 737 mmHg 84%
    21:00 +5°C° 0.4 mm 6 m/s 738 mmHg 82%
    22:00 +5°C° 0.4 mm 6 m/s 738 mmHg 81%
    23:00 +5°C° 0.4 mm 6 m/s 738 mmHg 79%

    25 Septembre, Mardi

    Heure Température Précipitation Vent Pression Humidité
    00:00 +5°C° 0.1 mm 6 m/s 739 mmHg 78%
    01:00 +4°C° 0.1 mm 6 m/s 739 mmHg 77%
    02:00 +4°C° 0.1 mm 6 m/s 740 mmHg 76%
    03:00 +4°C° 0.1 mm 6 m/s 741 mmHg 75%
    04:00 +4°C° 0.1 mm 6 m/s 741 mmHg 74%
    05:00 +4°C° 0.1 mm 6 m/s 742 mmHg 73%
    06:00 +4°C° 0 mm 6 m/s 743 mmHg 69%
    07:00 +4°C° 0 mm 6 m/s 743 mmHg 65%
    08:00 +5°C° 0 mm 6 m/s 744 mmHg 61%
    09:00 +7°C° 0 mm 6 m/s 745 mmHg 56%
    10:00 +8°C° 0 mm 6 m/s 745 mmHg 51%
    11:00 +9°C° 0 mm 6 m/s 746 mmHg 46%
    12:00 +9°C° 0.1 mm 6 m/s 746 mmHg 48%
    13:00 +9°C° 0.1 mm 5 m/s 746 mmHg 49%
    14:00 +10°C° 0.1 mm 5 m/s 747 mmHg 50%
    15:00 +10°C° 0.1 mm 4 m/s 747 mmHg 56%
    16:00 +9°C° 0.1 mm 3 m/s 748 mmHg 62%
    17:00 +8°C° 0.1 mm 2 m/s 748 mmHg 69%
    18:00 +7°C° 0.1 mm 2 m/s 748 mmHg 74%
    19:00 +6°C° 0.1 mm 2 m/s 749 mmHg 79%
    20:00 +5°C° 0.1 mm 2 m/s 749 mmHg 84%
    21:00 +6°C° 0.1 mm 1 m/s 750 mmHg 85%
    22:00 +5°C° 0.1 mm 1 m/s 750 mmHg 86%
    23:00 +5°C° 0.1 mm 1 m/s 751 mmHg 88%
    Voir plus